{"data":{"norad_id":60466,"intl_designator":"2024-148J","name":"YAOGAN-43 01J","alt_names":[],"object_type":"PAYLOAD","status":"ACTIVE","operator":null,"country":"PRC","launch_date":"2024-08-16","launch_site_code":"XICLF","launch_vehicle":null,"mission":null,"orbit_class":"UNKNOWN","rcs_meters":null,"size_class":null,"mass_kg":null,"dimensions":null,"purposes":[],"wikipedia_slug":null,"has_3d_model":false,"image_url":null,"decayed_at":null,"tle_current":{"epoch":"2026-09-22T23:02:43.440864Z","epoch_age_seconds":73719,"freshness":"FRESH","line1":"1 60466U 24148J   26265.96022501  .00011005  00000+0  28094-3 0  9999","line2":"2 60466  34.9901 224.9719 0005007  85.8327 274.2964 15.38655671117492","mean_motion":15.38655671,"eccentricity":0.0005007,"inclination_deg":34.9901,"raan_deg":224.9719,"arg_perigee_deg":85.8327,"mean_anomaly_deg":274.2964,"bstar":0.00028094,"rev_number":11749,"period_min":93.58819046656,"perigee_km":446.66476169492,"apogee_km":453.50254185561,"semimajor_km":6828.2206517753,"source":"CELESTRAK","updated_at":"2026-09-23T09:00:20.620412Z"}}}